LAN107 SCSE-SCEL

Flight info

Callsign LAN107
Flight time 0h 38m
Altitude 27000
Route EDRON5 EDRON UL302 SIMOK SIMOK7B
Aircraft A321/M-SDE3FGHIRWY/LB1

Departure

Time 2026-04-22 04:59
Airport La Florida Airport (SCSE)

Arrival

Time 2026-04-22 05:38
Airport Comodoro Arturo Merino Benítez International Airport (SCEL)
Time Latitude Longitude Altitude Speed Heading
2026-04-22 04:37 -29.91706 -71.20255 480 ft 0 kts 206°
2026-04-22 04:53 -29.91707 -71.20255 480 ft 1 kts 206°
2026-04-22 04:53 -29.91707 -71.20265 480 ft 1 kts 272°
2026-04-22 04:54 -29.91698 -71.20265 477 ft 1 kts 359°
2026-04-22 04:54 -29.91684 -71.20247 478 ft 6 kts 52°
2026-04-22 04:54 -29.91673 -71.20194 473 ft 7 kts 81°
2026-04-22 04:54 -29.91654 -71.20151 475 ft 6 kts 40°
2026-04-22 04:55 -29.91615 -71.20127 474 ft 7 kts 25°
2026-04-22 04:55 -29.91594 -71.20077 476 ft 8 kts 99°
2026-04-22 04:55 -29.91615 -71.20019 477 ft 8 kts 116°
2026-04-22 04:55 -29.91637 -71.19967 475 ft 7 kts 116°
2026-04-22 04:56 -29.91657 -71.19920 477 ft 7 kts 116°
2026-04-22 04:56 -29.91691 -71.19841 471 ft 16 kts 116°
2026-04-22 04:56 -29.91752 -71.19697 473 ft 24 kts 116°
2026-04-22 04:56 -29.91831 -71.19511 479 ft 26 kts 116°
2026-04-22 04:57 -29.91904 -71.19343 476 ft 23 kts 116°
2026-04-22 04:57 -29.91972 -71.19186 471 ft 17 kts 116°
2026-04-22 04:57 -29.92030 -71.19108 477 ft 9 kts 140°
2026-04-22 04:57 -29.92049 -71.19066 473 ft 5 kts 77°
2026-04-22 04:58 -29.92031 -71.19062 474 ft 2 kts 341°
2026-04-22 04:58 -29.92022 -71.19071 473 ft 1 kts 312°
2026-04-22 04:58 -29.92020 -71.19076 475 ft 0 kts 295°
2026-04-22 04:58 -29.92020 -71.19077 473 ft 0 kts 295°
2026-04-22 04:59 -29.91986 -71.19154 475 ft 38 kts 296°
2026-04-22 04:59 -29.91753 -71.19700 473 ft 110 kts 296°
2026-04-22 04:59 -29.91325 -71.20671 620 ft 150 kts 297°
2026-04-22 04:59 -29.90875 -71.21745 1332 ft 146 kts 295°
2026-04-22 05:00 -29.90441 -71.22819 1934 ft 150 kts 294°
2026-04-22 05:00 -29.90009 -71.23926 2510 ft 152 kts 293°
2026-04-22 05:00 -29.89789 -71.25123 2981 ft 159 kts 260°
2026-04-22 05:00 -29.90295 -71.26294 3334 ft 176 kts 223°
2026-04-22 05:01 -29.91440 -71.26896 3642 ft 192 kts 187°
2026-04-22 05:01 -29.92347 -71.26988 3866 ft 203 kts 184°
2026-04-22 05:01 -29.93814 -71.27105 4188 ft 223 kts 183°
2026-04-22 05:01 -29.95461 -71.27230 4538 ft 249 kts 184°
2026-04-22 05:02 -29.97259 -71.27402 5105 ft 267 kts 185°
2026-04-22 05:02 -29.99145 -71.27597 5892 ft 276 kts 185°
2026-04-22 05:02 -30.01086 -71.27801 6734 ft 283 kts 186°
2026-04-22 05:02 -30.03070 -71.28012 7537 ft 290 kts 186°
2026-04-22 05:03 -30.05102 -71.28225 8341 ft 296 kts 186°
2026-04-22 05:03 -30.07183 -71.28445 9144 ft 303 kts 186°
2026-04-22 05:03 -30.09305 -71.28661 9973 ft 309 kts 185°
2026-04-22 05:03 -30.11504 -71.28796 10453 ft 328 kts 182°
2026-04-22 05:04 -30.13866 -71.28874 10764 ft 350 kts 182°
2026-04-22 05:04 -30.16334 -71.28922 11405 ft 358 kts 182°
2026-04-22 05:04 -30.18843 -71.28966 12220 ft 362 kts 182°
2026-04-22 05:04 -30.21377 -71.29023 13064 ft 366 kts 183°
2026-04-22 05:05 -30.23939 -71.29092 13922 ft 368 kts 184°
2026-04-22 05:05 -30.26513 -71.29167 14680 ft 371 kts 184°
2026-04-22 05:05 -30.29106 -71.29034 15403 ft 378 kts 172°
2026-04-22 05:05 -30.31683 -71.28299 16135 ft 383 kts 168°
2026-04-22 05:06 -30.34270 -71.27505 16863 ft 387 kts 168°
2026-04-22 05:06 -30.36885 -71.26691 17571 ft 391 kts 168°
2026-04-22 05:06 -30.39526 -71.25864 18253 ft 396 kts 168°
2026-04-22 05:06 -30.42198 -71.25027 18893 ft 399 kts 169°
2026-04-22 05:07 -30.44898 -71.24185 19518 ft 403 kts 169°
2026-04-22 05:07 -30.47620 -71.23340 20123 ft 407 kts 169°
2026-04-22 05:07 -30.50372 -71.22489 20720 ft 410 kts 170°
2026-04-22 05:07 -30.53107 -71.21643 21310 ft 414 kts 170°
2026-04-22 05:08 -30.55908 -71.20782 21907 ft 417 kts 171°
2026-04-22 05:08 -30.58732 -71.19940 22502 ft 420 kts 172°
2026-04-22 05:08 -30.61584 -71.19103 23072 ft 424 kts 172°
2026-04-22 05:08 -30.64459 -71.18265 23648 ft 428 kts 172°
2026-04-22 05:09 -30.67356 -71.17421 24133 ft 431 kts 173°
2026-04-22 05:09 -30.70277 -71.16564 24617 ft 434 kts 173°
2026-04-22 05:09 -30.73212 -71.15700 25084 ft 437 kts 173°
2026-04-22 05:09 -30.76174 -71.14825 25562 ft 441 kts 173°
2026-04-22 05:10 -30.79157 -71.13941 26013 ft 444 kts 173°
2026-04-22 05:10 -30.82164 -71.13047 26476 ft 447 kts 173°
2026-04-22 05:10 -30.85185 -71.12147 26924 ft 451 kts 173°
2026-04-22 05:10 -30.88235 -71.11239 27113 ft 452 kts 173°
2026-04-22 05:11 -30.91236 -71.10338 27148 ft 439 kts 174°
2026-04-22 05:11 -30.94166 -71.09455 27152 ft 433 kts 174°
2026-04-22 05:11 -30.97078 -71.08586 27151 ft 431 kts 174°
2026-04-22 05:11 -30.99986 -71.07723 27153 ft 431 kts 174°
2026-04-22 05:12 -31.02890 -71.06862 27153 ft 431 kts 174°
2026-04-22 05:12 -31.05794 -71.06000 27155 ft 431 kts 174°
2026-04-22 05:12 -31.08703 -71.05136 27156 ft 431 kts 174°
2026-04-22 05:12 -31.11610 -71.04274 27155 ft 431 kts 174°
2026-04-22 05:13 -31.14518 -71.03406 27157 ft 431 kts 174°
2026-04-22 05:13 -31.17426 -71.02534 27159 ft 431 kts 174°
2026-04-22 05:13 -31.20332 -71.01666 27163 ft 431 kts 174°
2026-04-22 05:13 -31.23241 -71.00799 27166 ft 431 kts 174°
2026-04-22 05:14 -31.26151 -70.99924 27171 ft 432 kts 174°
2026-04-22 05:14 -31.29021 -70.99061 27170 ft 431 kts 174°
2026-04-22 05:14 -31.31925 -70.98190 27177 ft 431 kts 174°
2026-04-22 05:14 -31.34829 -70.97321 27177 ft 431 kts 174°
2026-04-22 05:15 -31.37729 -70.96451 27183 ft 430 kts 174°
2026-04-22 05:15 -31.40632 -70.95582 27185 ft 431 kts 174°
2026-04-22 05:15 -31.43537 -70.94717 27188 ft 431 kts 174°
2026-04-22 05:15 -31.46439 -70.93855 27190 ft 430 kts 174°
2026-04-22 05:16 -31.49330 -70.92999 27192 ft 430 kts 174°
2026-04-22 05:16 -31.52247 -70.92134 27194 ft 429 kts 174°
2026-04-22 05:16 -31.55137 -70.91278 27197 ft 429 kts 174°
2026-04-22 05:16 -31.58028 -70.90416 27197 ft 429 kts 174°
2026-04-22 05:17 -31.60922 -70.89555 27197 ft 428 kts 174°
2026-04-22 05:17 -31.63811 -70.88695 27191 ft 428 kts 174°
2026-04-22 05:17 -31.66697 -70.87835 27189 ft 428 kts 174°
2026-04-22 05:17 -31.69586 -70.86974 27183 ft 428 kts 174°
2026-04-22 05:18 -31.75367 -70.85402 27179 ft 420 kts 181°
2026-04-22 05:18 -31.78254 -70.85197 27178 ft 414 kts 187°
2026-04-22 05:18 -31.81134 -70.85110 27182 ft 414 kts 187°
2026-04-22 05:19 -31.84011 -70.85011 27175 ft 414 kts 186°
2026-04-22 05:19 -31.86892 -70.84902 27157 ft 415 kts 186°
2026-04-22 05:19 -31.89773 -70.84790 26866 ft 412 kts 186°
2026-04-22 05:19 -31.92620 -70.84680 26382 ft 408 kts 186°
2026-04-22 05:20 -31.95444 -70.84574 25910 ft 404 kts 186°
2026-04-22 05:20 -31.98244 -70.84473 25442 ft 401 kts 185°
2026-04-22 05:20 -32.01022 -70.84376 24989 ft 398 kts 185°
2026-04-22 05:20 -32.03782 -70.84283 24531 ft 395 kts 185°
2026-04-22 05:21 -32.06516 -70.84187 24076 ft 392 kts 185°
2026-04-22 05:21 -32.09229 -70.84089 23592 ft 389 kts 185°
2026-04-22 05:21 -32.11887 -70.83992 23109 ft 384 kts 185°
2026-04-22 05:21 -32.14540 -70.83896 22662 ft 379 kts 185°
2026-04-22 05:22 -32.17167 -70.83802 22206 ft 375 kts 185°
2026-04-22 05:22 -32.19766 -70.83705 21756 ft 372 kts 184°
2026-04-22 05:22 -32.22343 -70.83608 21299 ft 369 kts 185°
2026-04-22 05:22 -32.24903 -70.83517 20855 ft 367 kts 185°
2026-04-22 05:23 -32.27451 -70.83425 20420 ft 366 kts 185°
2026-04-22 05:23 -32.29984 -70.83334 19981 ft 362 kts 185°
2026-04-22 05:23 -32.32494 -70.83243 19557 ft 360 kts 184°
2026-04-22 05:23 -32.34988 -70.83155 19133 ft 358 kts 184°
2026-04-22 05:24 -32.37477 -70.83070 18706 ft 357 kts 184°
2026-04-22 05:24 -32.39963 -70.82982 18251 ft 357 kts 184°
2026-04-22 05:24 -32.42434 -70.82895 17812 ft 355 kts 183°
2026-04-22 05:24 -32.44874 -70.82806 17411 ft 353 kts 183°
2026-04-22 05:25 -32.47322 -70.82717 16996 ft 351 kts 182°
2026-04-22 05:25 -32.49753 -70.82630 16589 ft 348 kts 182°
2026-04-22 05:25 -32.52165 -70.82542 16191 ft 345 kts 182°
2026-04-22 05:25 -32.54556 -70.82454 15789 ft 343 kts 182°
2026-04-22 05:26 -32.56943 -70.82366 15405 ft 343 kts 182°
2026-04-22 05:26 -32.59326 -70.82284 15003 ft 343 kts 181°
2026-04-22 05:26 -32.61683 -70.82203 14613 ft 342 kts 181°
2026-04-22 05:26 -32.64062 -70.82119 14217 ft 343 kts 180°
2026-04-22 05:27 -32.66424 -70.82034 14014 ft 334 kts 180°
2026-04-22 05:27 -32.68713 -70.81950 13886 ft 325 kts 180°
2026-04-22 05:27 -32.70938 -70.81869 13747 ft 315 kts 181°
2026-04-22 05:27 -32.73104 -70.81793 13493 ft 309 kts 181°
2026-04-22 05:28 -32.75227 -70.81717 13412 ft 305 kts 181°
2026-04-22 05:28 -32.77364 -70.81640 13014 ft 309 kts 181°
2026-04-22 05:28 -32.79507 -70.81560 12702 ft 306 kts 181°
2026-04-22 05:28 -32.81651 -70.81481 12318 ft 307 kts 180°
2026-04-22 05:29 -32.83772 -70.81401 12042 ft 304 kts 180°
2026-04-22 05:29 -32.85881 -70.81323 11705 ft 303 kts 180°
2026-04-22 05:29 -32.87980 -70.81247 11362 ft 301 kts 180°
2026-04-22 05:29 -32.90070 -70.81173 11023 ft 300 kts 180°
2026-04-22 05:30 -32.92149 -70.81148 10672 ft 297 kts 187°
2026-04-22 05:30 -32.94192 -70.81439 10337 ft 295 kts 190°
2026-04-22 05:30 -32.96224 -70.81747 9972 ft 294 kts 190°
2026-04-22 05:30 -32.98248 -70.82055 9605 ft 292 kts 189°
2026-04-22 05:31 -33.00256 -70.82343 9268 ft 289 kts 185°
2026-04-22 05:31 -33.02258 -70.82305 8719 ft 287 kts 178°
2026-04-22 05:31 -33.04254 -70.82198 8123 ft 286 kts 178°
2026-04-22 05:31 -33.06228 -70.82088 7513 ft 282 kts 178°
2026-04-22 05:32 -33.08182 -70.81974 6859 ft 280 kts 177°
2026-04-22 05:32 -33.10125 -70.81860 6127 ft 279 kts 177°
2026-04-22 05:32 -33.12049 -70.81747 5407 ft 276 kts 177°
2026-04-22 05:32 -33.13961 -70.81635 5074 ft 269 kts 177°
2026-04-22 05:33 -33.15757 -70.81531 4995 ft 248 kts 177°
2026-04-22 05:33 -33.17404 -70.81436 5011 ft 227 kts 177°
2026-04-22 05:33 -33.18915 -70.81350 5005 ft 206 kts 177°
2026-04-22 05:33 -33.20282 -70.81277 4877 ft 190 kts 177°
2026-04-22 05:34 -33.21566 -70.81208 4662 ft 181 kts 177°
2026-04-22 05:34 -33.22801 -70.81142 4429 ft 175 kts 177°
2026-04-22 05:34 -33.23999 -70.81078 4217 ft 170 kts 177°
2026-04-22 05:34 -33.25151 -70.81016 3989 ft 166 kts 177°
2026-04-22 05:35 -33.26293 -70.80955 3775 ft 163 kts 177°
2026-04-22 05:35 -33.27413 -70.80895 3564 ft 160 kts 177°
2026-04-22 05:35 -33.28513 -70.80837 3355 ft 157 kts 177°
2026-04-22 05:35 -33.29597 -70.80779 3129 ft 155 kts 177°
2026-04-22 05:36 -33.30651 -70.80722 2928 ft 150 kts 177°
2026-04-22 05:36 -33.31680 -70.80667 2709 ft 147 kts 176°
2026-04-22 05:36 -33.32696 -70.80613 2497 ft 145 kts 176°
2026-04-22 05:36 -33.33701 -70.80557 2290 ft 144 kts 176°
2026-04-22 05:37 -33.34703 -70.80498 2092 ft 144 kts 176°
2026-04-22 05:37 -33.35699 -70.80443 1894 ft 143 kts 176°
2026-04-22 05:37 -33.36695 -70.80396 1708 ft 143 kts 177°
2026-04-22 05:37 -33.37683 -70.80348 1577 ft 137 kts 177°
2026-04-22 05:38 -33.38505 -70.80302 1573 ft 86 kts 177°
2026-04-22 05:38 -33.38945 -70.80280 1574 ft 47 kts 178°
2026-04-22 05:38 -33.39171 -70.80266 1573 ft 29 kts 173°
2026-04-22 05:38 -33.39358 -70.80183 1571 ft 29 kts 147°
2026-04-22 05:39 -33.39462 -70.80102 1567 ft 12 kts 146°
2026-04-22 05:39 -33.39520 -70.80028 1566 ft 13 kts 115°
2026-04-22 05:39 -33.39530 -70.79923 1565 ft 13 kts 87°
2026-04-22 05:39 -33.39525 -70.79815 1565 ft 13 kts 88°
2026-04-22 05:40 -33.39522 -70.79707 1565 ft 13 kts 88°
2026-04-22 05:40 -33.39518 -70.79599 1565 ft 13 kts 87°
2026-04-22 05:40 -33.39513 -70.79499 1565 ft 10 kts 87°
2026-04-22 05:40 -33.39533 -70.79458 1565 ft 6 kts 164°
2026-04-22 05:41 -33.39568 -70.79455 1565 ft 4 kts 177°
2026-04-22 05:41 -33.39593 -70.79453 1565 ft 2 kts 177°
2026-04-22 05:41 -33.39594 -70.79453 1565 ft 0 kts 177°